Regional Weather Roundup
Issued by NWS

Home | Current Version | Previous Version | Graphics & Text | Print | Product List | Glossary On
Versions: 1 2 3 4 5 6 7 8 9 10 11 12 13 14 15 16 17 18 19 20 21 22 23 24 25 26 27 28 29 30 31 32 33 34 35 36 37 38 39 40 41 42 43 44 45 46 47 48 49 50
000
ASUS43 KMKX 251110
RWRWI

WISCONSIN REGIONAL WEATHER ROUNDUP
NATIONAL WEATHER SERVICE MILWAUKEE/SULLIVAN WI
600 AM CDT FRI JUL 25 2014

NOTE: "FAIR" INDICATES FEW OR NO CLOUDS BELOW 12,000 FEET WITH NO
SIGNIFICANT WEATHER AND/OR OBSTRUCTIONS TO VISIBILITY.

WIZ001-002-006>008-014>016-023>028-251200-
NORTHWEST WISCONSIN

CITY           SKY/WX    TMP DP  RH WIND       PRES   REMARKS
SUPERIOR ARPT  CLOUDY    57  55  94 CALM      29.84S
ASHLAND        CLOUDY    62  60  93 CALM      29.88S
HAYWARD        CLOUDY    64  60  87 SE5       29.88F
SIREN          CLOUDY    66  58  75 S7        29.87R
RICE LAKE      CLOUDY    65  58  80 S7        29.92R
LADYSMITH      CLOUDY    63  60  88 SE5       29.93S
EAU CLAIRE     CLOUDY    66  59  78 S8        29.92R
MENOMONIE      CLOUDY    67  59  74 S10       29.93R
NEW RICHMOND   LGT RAIN  67  59  76 S16G24    29.86F
OSCEOLA        LGT RAIN  66  62  85 S16G25    29.85F
$$

WIZ003>005-009-010-017-018-251200-
NORTH CENTRAL WISCONSIN

CITY           SKY/WX    TMP DP  RH WIND       PRES   REMARKS
WOODRUFF       LGT RAIN  62  58  87 SW3       29.94F
RHINELANDER    CLOUDY    61  57  87 SW6       29.98R
EAGLE RIVER    MOCLDY    58  55  92 CALM      29.94F
LAND O LAKES   MOCLDY    59  55  86 CALM      29.95F
PHILLIPS       CLOUDY    62  59  91 S5        29.93F
TOMAHAWK       LGT RAIN  59  57  94 CALM      29.97S
MEDFORD        CLOUDY    61  59  92 S9        29.95S
MERRILL        RAIN      62  59  90 CALM      29.97R
$$

WIZ029-030-035-036-043>047-251200-
CENTRAL WISCONSIN

CITY           SKY/WX    TMP DP  RH WIND       PRES   REMARKS
WAUSAU         LGT RAIN  63  59  87 S6        29.96S
MOSINEE        CLOUDY    63  59  88 E8        29.98F
MARSHFIELD     CLOUDY    62  59  90 S7        29.95F
STEVENS POINT  CLOUDY    59  56  91 S8        29.99F
WAUPACA        MOCLDY    60  55  83 S3        30.00R
WAUTOMA        MOCLDY    59  57  92 CALM      30.03R
WISC RAPIDS    LGT RAIN  61  58  90 S6        29.99S
CAMP DOUGLAS   CLOUDY    63  61  94 SE5       29.98F
$$

WIZ011>013-019>022-031-037>040-048>050-251200-
NORTHEAST WISCONSIN

CITY           SKY/WX    TMP DP  RH WIND       PRES   REMARKS
ANTIGO         MOCLDY    57  56  96 SW6       30.00R
STURGEON BAY   CLOUDY    61  46  59 SW8       29.98S
GREEN BAY      CLEAR     62  54  74 SW6       29.99S
MANITOWOC      MOCLDY    63  48  58 W7        30.00S
APPLETON       MOCLDY    59  52  77 SW7       30.00F
CLINTONVILLE   PTCLDY    59  52  77 S6        29.99R
OSHKOSH        PTCLDY    60  51  72 SW13      30.01R
$$

WIZ032>034-041-042-053>061-251200-
SOUTHWEST WISCONSIN

CITY           SKY/WX    TMP DP  RH WIND       PRES   REMARKS
LA CROSSE      CLOUDY    69  57  65 S12       29.95S
SPARTA         CLOUDY    63  57  80 S6        29.97S
VIROQUA        PTSUNNY   63  57  83 S10       29.99R
BOSCOBEL       LGT RAIN  64  57  78 S10       29.99F
PRAIRIE DU CHI LGT RAIN  65  56  70 S13G18    30.01R
PLATTEVILLE    MOCLDY    60  58  92 SE6       30.05S
$$

WIZ056-057-062-063-064-067-068-251200-
SOUTH CENTRAL WISCONSIN

CITY           SKY/WX    TMP DP  RH WIND       PRES   REMARKS
BARABOO/DELLS  CLOUDY    62  54  74 S9        30.02F
LONE ROCK      LGT RAIN  66  57  72 S6        29.99F
WATERTOWN      MOCLDY    56  49  78 SW3       30.05R
MADISON        LGT RAIN  63  54  72 SW7       30.05R
MIDDLETON      FAIR      64  52  66 SW7       30.04F
MONROE         LGT RAIN  59  54  82 SW10      30.07R
JANESVILLE     MOCLDY    61  48  63 SW8       30.07R
$$

WIZ051-052-058>065-066-070>072-251200-
SOUTHEAST WISCONSIN

CITY           SKY/WX    TMP DP  RH WIND       PRES   REMARKS
MILWAUKEE      MOCLDY    59  46  62 SW9       30.02S
WAUKESHA       PTCLDY    55  46  71 SW7       30.05R
MILWAUKEE/TIMM PTCLDY    59  45  58 SW3       30.03S
RACINE         MOCLDY    59  47  64 SW5       30.04S
BURLINGTON     MOCLDY    52  48  86 SW5       30.05R
KENOSHA        PTCLDY    54  48  80 W7        30.04R
FOND DU LAC    MOCLDY    60  48  64 SW12      30.03R
SHEBOYGAN      PTCLDY    57  48  72 SW6       30.00F
WEST BEND      PTCLDY    57  45  62 CALM      30.02S
JUNEAU         PTCLDY    56  48  74 SW5       30.08R
$$

LSZ147-162-251200-
LAKE SUPERIOR

STATION/POSITION TIME  TEMP    WIND        PRES    WAVE
                       AIR SEA DIR/SP/G            HT/PER
                 (UTC) (F)     (DEG/KT/KT) (MB)    (FT/S)
$$

LMZ867-665-643>646-251200-
LAKE MICHIGAN

STATION/POSITION TIME  TEMP    WIND        PRES    WAVE
                       AIR SEA DIR/SP/G            HT/PER
                 (UTC) (F)     (DEG/KT/KT) (MB)    (FT/S)
$$

TC  - TEMPERATURE IN CELSIUS
VSB - VISIBILITY IN STATUTE MILES
WCI - WIND CHILL INDEX
HX  - HEAT INDEX



USA.gov is the U.S. government's official web portal to all federal, state and local government web resources and services.